Millbury, Ohio, United States (43447)
Lat: 41.57N, Lon: 83.42W
Wx Zone: OHZ006
Local Info
Past Weather Observations for Today

NOTE: This archive is for the closest National Weather Service station to Millbury. Information may differ from the station used for current weather conditions.

Click here for Long-term Archive

Time Weather Temperature Dewpoint Humidity Pressure Winds Precip Visibility
18:53
Overcast
21°F / -6°C 9°F / -13°C 58% 29.95 in
(1014 mb)
WNW 17.3 mph
(WNW 28 kph)
- 10SM
17:53
Overcast
21°F / -6°C 10°F / -12°C 63% 29.95 in
(1014 mb)
W 13.8 mph
(W 22 kph)
- 10SM
16:53
Overcast
23°F / -5°C 9°F / -13°C 54% 29.92 in
(1013 mb)
W 16.1 mph
(W 26 kph)
0.00 in
(0.00 mm)
10SM
16:00
Overcast
23°F / -5°C 9°F / -13°C 54% 29.89 in
(1012 mb)
W 19.6 mph
(W 32 kph)
0.00 in
(0.00 mm)
9SM
15:53
Overcast
Light Snow
21°F / -6°C 12°F / -11°C 68% 29.89 in
(1012 mb)
NW 15 mph
(NW 24 kph)
0.00 in
(0.00 mm)
2 1/2SM
15:46
Overcast
Light Snow
21°F / -6°C 12°F / -11°C 68% 29.89 in
(1012 mb)
WNW 16.1 mph
(WNW 26 kph)
0.00 in
(0.00 mm)
1 3/4SM
14:53
Overcast
25°F / -4°C 10°F / -12°C 54% 29.89 in
(1012 mb)
NW 16.1 mph
(NW 26 kph)
- 10SM
13:53
Overcast
21°F / -6°C 12°F / -11°C 68% 29.89 in
(1012 mb)
NW 16.1 mph
(NW 26 kph)
0.00 in
(0.00 mm)
10SM
12:53
Overcast
23°F / -5°C 10°F / -12°C 58% 29.86 in
(1011 mb)
NW 12.7 mph
(NW 20 kph)
0.00 in
(0.00 mm)
10SM
12:20
Overcast
Light Snow
21°F / -6°C 16°F / -9°C 80% 29.89 in
(1012 mb)
NW 10.4 mph
(NW 17 kph)
0.00 in
(0.00 mm)
5SM
12:04
Overcast
Light Snow
21°F / -6°C 16°F / -9°C 80% 29.89 in
(1012 mb)
NW 12.7 mph
(NW 20 kph)
0.00 in
(0.00 mm)
2 1/2SM
11:55
Overcast
Light Snow
21°F / -6°C 16°F / -9°C 80% 29.89 in
(1012 mb)
NNW 12.7 mph
(NNW 20 kph)
0.00 in
(0.00 mm)
2 1/2SM
11:53
Overcast
Light Snow
23°F / -5°C 14°F / -10°C 68% 29.89 in
(1012 mb)
NW 16.1 mph
(NW 26 kph)
0.00 in
(0.00 mm)
3SM
11:38
Overcast
25°F / -4°C 14°F / -10°C 63% 29.89 in
(1012 mb)
W 17.3 mph
(W 28 kph)
0.00 in
(0.00 mm)
9SM
11:28
Overcast
Light Snow
23°F / -5°C 14°F / -10°C 68% 29.89 in
(1012 mb)
W 13.8 mph
(W 22 kph)
0.00 in
(0.00 mm)
6SM
11:11
Overcast
Light Snow
21°F / -6°C 14°F / -10°C 74% 29.89 in
(1012 mb)
WNW 17.3 mph
(WNW 28 kph)
0.00 in
(0.00 mm)
2 1/2SM
11:01
Overcast
23°F / -5°C 14°F / -10°C 68% 29.89 in
(1012 mb)
W 16.1 mph
(W 26 kph)
- 8SM
10:53
Overcast
23°F / -5°C 12°F / -11°C 63% 29.89 in
(1012 mb)
W 16.1 mph
(W 26 kph)
- 7SM
10:33
Overcast
23°F / -5°C 12°F / -11°C 63% 29.89 in
(1012 mb)
WNW 16.1 mph
(WNW 26 kph)
- 10SM
09:53
Overcast
21°F / -6°C 12°F / -11°C 68% 29.86 in
(1011 mb)
W 15 mph
(W 24 kph)
- 10SM
08:53
Overcast
21°F / -6°C 12°F / -11°C 68% 29.83 in
(1010 mb)
W 15 mph
(W 24 kph)
- 7SM
07:53
Overcast
21°F / -6°C 12°F / -11°C 68% 29.83 in
(1010 mb)
NW 19.6 mph
(NW 32 kph)
- 10SM
07:07
Overcast
21°F / -6°C 12°F / -11°C 68% 29.8 in
(1009 mb)
WNW 19.6 mph
(WNW 32 kph)
- 10SM
06:53
Overcast
21°F / -6°C 16°F / -9°C 80% 29.8 in
(1009 mb)
W 17.3 mph
(W 28 kph)
- 10SM
06:35
Overcast
21°F / -6°C 16°F / -9°C 80% 29.8 in
(1009 mb)
SSW 16.1 mph
(SSW 26 kph)
- 10SM
05:53
Overcast
21°F / -6°C 16°F / -9°C 80% 29.8 in
(1009 mb)
SSW 15 mph
(SSW 24 kph)
- 8SM
05:19
Overcast
21°F / -6°C 16°F / -9°C 80% 29.77 in
(1008 mb)
SSW 16.1 mph
(SSW 26 kph)
- 9SM
04:53
Overcast
21°F / -6°C 16°F / -9°C 80% 29.77 in
(1008 mb)
SSW 13.8 mph
(SSW 22 kph)
- 10SM
04:46
Overcast
21°F / -6°C 16°F / -9°C 80% 29.77 in
(1008 mb)
SSW 13.8 mph
(SSW 22 kph)
- 10SM
03:53
Overcast
23°F / -5°C 16°F / -9°C 74% 29.77 in
(1008 mb)
SSW 16.1 mph
(SSW 26 kph)
- 10SM
02:53
Overcast
23°F / -5°C 18°F / -8°C 80% 29.77 in
(1008 mb)
SSW 13.8 mph
(SSW 22 kph)
- 10SM
02:24
Overcast
25°F / -4°C 18°F / -8°C 74% 29.77 in
(1008 mb)
SSW 13.8 mph
(SSW 22 kph)
- 10SM
01:53
Overcast
25°F / -4°C 18°F / -8°C 74% 29.77 in
(1008 mb)
SSW 15 mph
(SSW 24 kph)
- 10SM
01:21
Overcast
25°F / -4°C 18°F / -8°C 74% 29.77 in
(1008 mb)
W 16.1 mph
(W 26 kph)
- 10SM
00:53
Overcast
25°F / -4°C 18°F / -8°C 74% 29.77 in
(1008 mb)
SSW 17.3 mph
(SSW 28 kph)
- 10SM
Time Weather Temperature Dewpoint Humidity Pressure Winds Precip Visibility


Weather for websites

WeatherForYou.com, LLC is not responsible for any damages or problems caused by this service. Current weather conditions are obtained from the closest station including government and personal stations which may have varying degrees of accuracy. Weather forecasts are derived from the NOAA NDFD. Like all things, this site belongs to Jesus Christ... He just trusts us to maintain it. If you have any questions or comments email webmaster@weatherforyou.com

Copyright © 2016, WeatherForYou.com LLC. All rights reserved.